[[{"header":{"parameterUnit":"m.s-1","parameterCategory":1,"la1":30.2991,"la2":30.254,"lo1":-89.0895,"lo2":-89.0444,"dy":0.0017,"dx":0.0017,"nx":28,"ny":28,"refTime":"2024-04-22T09:00:00:Z","depth":0,"parameterNumber":2,"parameterNumberName":"U-component_of_WINDS"},"data":[0,0,0,0,0,0,0,0,0,0,0,0,0,0,0,0,0,0,0,0,0,0,0,0,0,0,0,0,0,0,0,0,0,0,0,0,0,0,0,0,0,0,0,0,0,0,0,0,0,0,0,0,0,0,0,0,0,0,-3.8317,-3.8318,0,-3.8414,-3.8416,-3.8417,-3.8354,-3.8351,-3.8348,-3.8345,-3.8442,-3.8448,-3.8453,0,0,0,0,0,0,0,0,0,0,0,0,0,-3.8074,-3.8079,-3.8317,-3.8318,-3.832,-3.8414,-3.8416,-3.8417,-3.8354,-3.8351,-3.8347,-3.8344,-3.8441,-3.8447,-3.8453,0,0,0,0,0,0,0,0,0,0,0,0,0,-3.8176,-3.8081,-3.8317,-3.83,-3.8299,-3.8414,-3.8416,-3.8417,-3.8355,-3.835,-3.8346,-3.8342,-3.8439,-3.8446,-3.8454,-3.8591,0,0,-3.8478,-3.8482,0,0,0,0,0,0,0,0,-3.8171,-3.8185,-3.8301,-3.8301,-3.8301,-3.8367,-3.8365,-3.8475,-3.8356,-3.8334,-3.8345,-3.834,-3.8421,-3.843,-3.8458,-3.8595,-3.8599,-3.8479,-3.8484,-3.8487,-3.849,0,0,0,0,0,0,0,-3.8164,-3.8181,-3.8356,-3.8303,-3.8303,-3.8286,-3.8296,-3.8386,-3.84,-3.8335,-3.8331,-3.8343,-3.842,-3.845,-3.846,-3.8601,-3.8479,-3.8486,-3.8491,-3.8494,-3.8852,-3.8857,0,0,0,0,0,0,-3.8158,-3.8175,-3.8352,-3.8358,-3.8224,-3.8294,-3.8305,-3.835,-3.8399,-3.8403,-3.8347,-3.834,-3.8439,-3.845,-3.8463,-3.8623,-3.8487,-3.8495,-3.8499,-3.8847,-3.8853,-3.8858,0,0,0,0,0,0,-3.8153,-3.8175,-3.8349,-3.8266,-3.8287,-3.8303,-3.8355,-3.8355,-3.8385,-3.8408,-3.841,-3.8376,-3.8436,-3.8452,-3.8559,-3.8626,-3.8498,-3.8506,-3.8842,-3.8849,-3.8856,-3.8947,0,0,0,0,0,0,-3.8147,-3.8173,-3.8226,-3.8268,-3.8291,-3.8444,-3.8359,-3.836,-3.8399,-3.8391,-3.8435,-3.8439,-3.8434,-3.8547,-3.8567,-3.8634,-3.8512,-3.8836,-3.8845,-3.8854,-3.8938,-3.8956,-3.8972,0,0,0,0,0,-3.8138,-3.8248,-3.8229,-3.8251,-3.8358,-3.8448,-3.8462,-3.8454,-3.8405,-3.8457,-3.8472,-3.8437,-3.8616,-3.8559,-3.858,-3.8651,-3.8832,-3.8843,-3.8853,-3.893,-3.8953,-3.8972,0,0,0,0,0,0,-3.8214,-3.8253,-3.8233,-3.8359,-3.8401,-3.8437,-3.8503,-3.8479,-3.8534,-3.8524,-3.8512,-3.8523,-3.8634,-3.8654,-3.8589,-3.8785,-3.8716,-3.8731,-3.8767,-3.8789,-3.8805,-3.8797,-3.8518,0,0,0,0,0,-3.8245,-3.8316,-3.8347,-3.8456,-3.8478,-3.8487,-3.8526,-3.8517,-3.8559,-3.8576,-3.8599,-3.864,-3.8705,-3.8749,-3.881,-3.8941,-3.8949,-3.9001,-3.9018,-3.9032,-3.9044,-3.9112,-3.9135,-3.8893,-3.8893,-3.8893,0,0,-3.8311,-3.8341,-3.8387,-3.8471,-3.8502,-3.8575,-3.8502,-3.8582,-3.8635,-3.8588,-3.869,-3.8708,-3.8754,-3.8873,-3.8927,-3.8893,-3.9113,-3.9045,-3.9056,-3.9061,-3.9125,-3.9148,-3.9168,-3.8901,-3.8899,-3.8898,0,0,-3.8466,-3.8498,-3.8591,-3.8623,-3.8671,-3.8677,-3.8699,-3.874,-3.875,-3.8852,-3.8818,-3.888,-3.8994,-3.9027,-3.9058,-3.9226,-3.9195,-3.9247,-3.9334,-3.9401,-3.942,-3.9436,-3.9493,-3.9514,-3.926,-3.926,-3.926,0,-3.8541,-3.865,-3.8641,-3.8724,-3.8761,-3.8722,-3.8815,-3.8847,-3.8912,-3.8938,-3.89,-3.904,-3.9068,-3.9193,-3.9234,-3.9262,-3.9285,-3.924,-3.9418,-3.9435,-3.945,-3.9504,-3.9526,-3.9266,-3.9265,-3.9264,-3.9264,0,-3.8738,-3.8814,-3.8883,-3.8947,-3.8992,-3.9079,-3.9083,-3.913,-3.9117,-3.9126,-3.9229,-3.9262,-3.9328,-3.9358,-3.9346,-3.9481,-3.9458,-3.942,-3.9349,-3.9479,-3.9529,-3.955,-3.9274,-3.9272,-3.927,-3.9269,0,0,-3.8942,-3.9001,-3.9026,-3.9053,-3.9103,-3.9161,-3.9246,-3.9311,-3.935,-3.9397,-3.9466,-3.9563,-3.9527,-3.9563,-3.9555,-3.9613,-3.974,-3.9567,-3.9568,-3.9595,-3.9888,-3.9914,-3.9938,-3.9722,-3.9726,-3.9729,-3.9883,0,-3.9098,-3.9247,-3.9241,-3.9379,-3.9447,-3.9411,-3.9485,-3.9523,-3.9534,-3.9592,-3.9604,-3.9672,-3.9621,-3.9642,-3.9699,-3.9713,-3.9798,-3.9702,-3.9783,-3.9786,-3.977,-3.9965,-3.9994,-4.0137,-3.9903,-3.9906,-3.9908,0,-3.93,-3.9353,-3.9497,-3.9535,-3.9564,-3.963,-3.9688,-3.9746,-3.9788,-3.9791,-3.9831,-3.9813,-3.9897,-3.9828,-3.9942,-3.9877,-3.991,-3.9922,-3.9927,-3.9932,-3.9853,-3.9972,-4.0183,-4.0204,-3.994,-3.9937,-3.9935,0,-3.943,-3.9539,-3.9638,-3.9663,-3.9711,-3.9758,-3.978,-3.9818,-3.9857,-3.9908,-3.9932,-3.9993,-4.0025,-4.0072,-4.007,-4.002,-4.0185,-4.0116,-4.0188,-4.0188,-4.0222,-4.0219,-4.0438,-4.0249,-4.0249,-4.0249,-4.0248,0,-3.9603,-3.9692,-3.9697,-3.9758,-3.9856,-3.9849,-3.9946,-3.9963,-3.9996,-4.0059,-4.0033,-4.0092,-4.0087,-4.0147,-4.0146,-4.0239,-4.0255,-4.0259,-4.0257,-4.0259,-4.0258,-4.0278,-4.0267,-4.0254,-4.0253,-4.0252,-4.0251,0,-3.9765,-3.9772,-3.9877,-3.9914,-3.9925,-3.9996,-4.0026,-4.0083,-4.0092,-4.0172,-4.019,-4.0204,-4.0272,-4.0275,-4.0355,-4.0354,-4.0466,-4.0455,-4.0452,-4.0449,-4.052,-4.0512,-4.0757,-4.0788,-4.0582,-4.0584,-4.0585,0,-3.9873,-3.994,-3.9984,-4.0024,-4.0049,-4.0114,-4.0154,-4.0149,-4.0191,-4.0243,-4.0294,-4.036,-4.0412,-4.0523,-4.0539,-4.0599,-4.0587,-4.0669,-4.0595,-4.0595,-4.0584,-4.0579,-4.0584,-4.0682,-4.0684,-4.0686,-4.0687,0,-4.0063,-4.0063,-4.0121,-4.0181,-4.0228,-4.0275,-4.0318,-4.0352,-4.0353,-4.0401,-4.0471,-4.0511,-4.0592,-4.0657,-4.0715,-4.0736,-4.0711,-4.0711,-4.073,-4.0732,-4.0726,-4.0727,-4.0487,-4.0704,-4.0703,-4.0701,-4.07,-4.07,-4.0199,-4.0256,-4.0295,-4.0361,-4.0393,-4.0433,-4.0488,-4.0504,-4.0562,-4.0627,-4.0621,-4.0698,-4.0736,-4.0812,-4.0838,-4.0897,-4.0869,-4.0898,-4.0904,-4.0911,-4.0917,-4.0719,-4.0908,-4.0907,-4.0907,-4.0907,-4.0906,0,-4.0385,-4.0409,-4.0469,-4.0529,-4.058,-4.0554,-4.06,-4.0644,-4.0712,-4.075,-4.0802,-4.0881,-4.0944,-4.0966,-4.1026,-4.1069,-4.1059,-4.1085,-4.108,-4.1085,-4.094,-4.0916,-4.1092,-4.1092,-4.1092,-4.1092,-4.1092,-4.1091,-4.0488,-4.0582,-4.0587,-4.0696,-4.0719,-4.0794,-4.0822,-4.0859,-4.0889,-4.0978,-4.103,-4.1044,-4.1075,-4.1138,-4.1194,-4.1198,-4.122,-4.125,-4.125,-4.1114,-4.1095,-4.1077,-4.1054,-4.1256,-4.1256,-4.1389,-4.139,-4.1391]},{"header":{"parameterUnit":"m.s-1","parameterCategory":1,"la1":30.2991,"la2":30.254,"lo1":-89.0895,"lo2":-89.0444,"dy":0.0017,"dx":0.0017,"nx":28,"ny":28,"refTime":"2024-04-22T09:00:00:Z","depth":0,"parameterNumber":3,"parameterNumberName":"V-component_of_WINDS"},"data":[0,0,0,0,0,0,0,0,0,0,0,0,0,0,0,0,0,0,0,0,0,0,0,0,0,0,0,0,0,0,0,0,0,0,0,0,0,0,0,0,0,0,0,0,0,0,0,0,0,0,0,0,0,0,0,0,0,0,-1.2402,-1.2402,0,-1.2417,-1.2417,-1.2417,-1.2425,-1.2425,-1.2425,-1.2425,-1.244,-1.244,-1.2441,0,0,0,0,0,0,0,0,0,0,0,0,0,-1.2379,-1.2379,-1.2402,-1.2402,-1.2402,-1.2417,-1.2417,-1.2417,-1.2425,-1.2425,-1.2425,-1.2425,-1.244,-1.244,-1.2441,0,0,0,0,0,0,0,0,0,0,0,0,0,-1.2391,-1.2379,-1.2402,-1.2408,-1.2408,-1.2417,-1.2417,-1.2417,-1.2425,-1.2425,-1.2425,-1.2425,-1.244,-1.244,-1.2441,-1.2445,0,0,-1.2443,-1.2443,0,0,0,0,0,0,0,0,-1.239,-1.2391,-1.2407,-1.2407,-1.2408,-1.2419,-1.2414,-1.2426,-1.2425,-1.2419,-1.2425,-1.2425,-1.2433,-1.2434,-1.2437,-1.2445,-1.2446,-1.2443,-1.2443,-1.2444,-1.2444,0,0,0,0,0,0,0,-1.2389,-1.2391,-1.2408,-1.2407,-1.2408,-1.2409,-1.2411,-1.2417,-1.2426,-1.2419,-1.242,-1.2421,-1.2433,-1.2436,-1.2437,-1.2446,-1.2443,-1.2443,-1.2444,-1.2444,-1.2457,-1.2457,0,0,0,0,0,0,-1.2387,-1.239,-1.2407,-1.2408,-1.2399,-1.241,-1.2412,-1.2415,-1.2426,-1.2427,-1.2421,-1.2422,-1.2435,-1.2437,-1.2438,-1.2442,-1.2444,-1.2444,-1.2444,-1.2457,-1.2457,-1.2457,0,0,0,0,0,0,-1.2387,-1.2389,-1.2407,-1.2399,-1.2402,-1.241,-1.2414,-1.2416,-1.2419,-1.2427,-1.2429,-1.2423,-1.2435,-1.2437,-1.2443,-1.2443,-1.2444,-1.2445,-1.2457,-1.2457,-1.2457,-1.2451,0,0,0,0,0,0,-1.2386,-1.2389,-1.239,-1.2399,-1.2402,-1.2411,-1.2414,-1.2416,-1.242,-1.242,-1.2429,-1.243,-1.2436,-1.2442,-1.2443,-1.2444,-1.2445,-1.2457,-1.2457,-1.2457,-1.2451,-1.2451,-1.2451,0,0,0,0,0,-1.2385,-1.2388,-1.239,-1.2392,-1.2405,-1.2411,-1.2413,-1.2419,-1.242,-1.2421,-1.2427,-1.243,-1.2443,-1.2442,-1.2444,-1.2445,-1.2457,-1.2457,-1.2457,-1.2452,-1.2451,-1.2451,0,0,0,0,0,0,-1.238,-1.239,-1.2392,-1.2398,-1.2404,-1.2413,-1.2415,-1.2418,-1.2424,-1.2424,-1.2431,-1.2433,-1.2437,-1.2442,-1.2441,-1.2448,-1.245,-1.245,-1.2445,-1.2445,-1.2445,-1.2443,-1.2446,0,0,0,0,0,-1.2379,-1.2384,-1.2392,-1.2397,-1.24,-1.2407,-1.241,-1.2414,-1.242,-1.2422,-1.2428,-1.2434,-1.2439,-1.2442,-1.2447,-1.2452,-1.2454,-1.2453,-1.2453,-1.2452,-1.2453,-1.2454,-1.2454,-1.2457,-1.2457,-1.2457,0,0,-1.2378,-1.2384,-1.2387,-1.2396,-1.2401,-1.2405,-1.2409,-1.2414,-1.2417,-1.2423,-1.2429,-1.2433,-1.244,-1.2444,-1.2447,-1.2448,-1.2452,-1.2452,-1.2452,-1.2452,-1.2454,-1.2454,-1.2454,-1.2457,-1.2457,-1.2457,0,0,-1.2378,-1.2384,-1.2388,-1.2392,-1.2399,-1.2404,-1.2405,-1.2413,-1.2416,-1.2421,-1.2425,-1.2429,-1.2438,-1.2442,-1.2446,-1.2446,-1.245,-1.2448,-1.2446,-1.2447,-1.2447,-1.2447,-1.2447,-1.2447,-1.2448,-1.2448,-1.2448,0,-1.2376,-1.2383,-1.2389,-1.2394,-1.2397,-1.2402,-1.2406,-1.241,-1.2419,-1.2421,-1.2422,-1.2432,-1.2437,-1.2443,-1.2443,-1.2445,-1.2446,-1.2447,-1.2447,-1.2447,-1.2447,-1.2446,-1.2446,-1.2448,-1.2448,-1.2448,-1.2448,0,-1.238,-1.2385,-1.2387,-1.2395,-1.2398,-1.2402,-1.2408,-1.2411,-1.2415,-1.2419,-1.2424,-1.243,-1.2436,-1.2437,-1.2441,-1.2443,-1.2443,-1.2446,-1.2448,-1.2446,-1.2446,-1.2446,-1.2447,-1.2447,-1.2447,-1.2447,0,0,-1.2378,-1.2388,-1.2389,-1.2392,-1.2399,-1.2403,-1.2407,-1.2412,-1.2415,-1.242,-1.2423,-1.243,-1.2431,-1.2435,-1.2439,-1.244,-1.244,-1.2442,-1.2443,-1.2441,-1.2442,-1.244,-1.244,-1.2442,-1.2442,-1.2442,-1.2441,0,-1.2379,-1.2386,-1.2391,-1.2396,-1.24,-1.2405,-1.2408,-1.2413,-1.2417,-1.242,-1.2424,-1.2429,-1.2431,-1.2433,-1.2435,-1.2439,-1.244,-1.2439,-1.2444,-1.2444,-1.2442,-1.244,-1.2438,-1.2437,-1.2441,-1.2441,-1.2441,0,-1.2382,-1.2386,-1.2392,-1.2398,-1.24,-1.2403,-1.2408,-1.2411,-1.2416,-1.2419,-1.2423,-1.2426,-1.243,-1.2431,-1.2436,-1.2436,-1.2438,-1.244,-1.244,-1.2441,-1.2443,-1.244,-1.2437,-1.2437,-1.2441,-1.2441,-1.2441,0,-1.2379,-1.2387,-1.2391,-1.2393,-1.2401,-1.2402,-1.2406,-1.2411,-1.2413,-1.2418,-1.2419,-1.2424,-1.2427,-1.243,-1.2435,-1.2435,-1.2439,-1.2441,-1.244,-1.244,-1.2441,-1.2441,-1.2438,-1.2443,-1.2443,-1.2443,-1.2443,0,-1.238,-1.2383,-1.239,-1.2392,-1.2395,-1.24,-1.2403,-1.2407,-1.2411,-1.2414,-1.2418,-1.2421,-1.2427,-1.243,-1.2433,-1.2436,-1.2437,-1.2439,-1.244,-1.2439,-1.2438,-1.244,-1.244,-1.2443,-1.2443,-1.2443,-1.2443,0,-1.2378,-1.2382,-1.2387,-1.2393,-1.2395,-1.2397,-1.2402,-1.2404,-1.2408,-1.2411,-1.2412,-1.2418,-1.2422,-1.2426,-1.2432,-1.2434,-1.2437,-1.2438,-1.2435,-1.2435,-1.2435,-1.2435,-1.2433,-1.2433,-1.2437,-1.2437,-1.2437,0,-1.2378,-1.238,-1.2387,-1.2389,-1.2391,-1.2395,-1.2398,-1.2402,-1.2405,-1.241,-1.2411,-1.2415,-1.2419,-1.2425,-1.2429,-1.2433,-1.2434,-1.2433,-1.2435,-1.2433,-1.2434,-1.2434,-1.2434,-1.2433,-1.2433,-1.2433,-1.2433,0,-1.2378,-1.2379,-1.2383,-1.2387,-1.239,-1.2394,-1.2397,-1.2399,-1.2404,-1.2406,-1.241,-1.2413,-1.2418,-1.2422,-1.2426,-1.2429,-1.2431,-1.2432,-1.2432,-1.2431,-1.2429,-1.243,-1.2434,-1.2432,-1.2432,-1.2432,-1.2433,-1.2433,-1.2376,-1.2378,-1.2383,-1.2386,-1.2389,-1.2392,-1.2395,-1.2398,-1.2401,-1.2406,-1.2408,-1.2411,-1.2415,-1.2421,-1.2424,-1.2427,-1.2428,-1.2428,-1.2428,-1.2428,-1.2427,-1.2428,-1.2427,-1.2427,-1.2427,-1.2427,-1.2427,0,-1.2376,-1.2379,-1.2382,-1.2387,-1.2389,-1.2391,-1.2395,-1.2397,-1.24,-1.2403,-1.2406,-1.241,-1.2414,-1.2418,-1.2421,-1.2422,-1.2424,-1.2423,-1.2423,-1.2424,-1.2426,-1.2426,-1.2422,-1.2422,-1.2422,-1.2422,-1.2422,-1.2422,-1.2376,-1.2379,-1.2381,-1.2386,-1.2388,-1.2392,-1.2393,-1.2396,-1.2399,-1.2403,-1.2405,-1.2408,-1.2412,-1.2415,-1.2418,-1.2419,-1.242,-1.2419,-1.2421,-1.2423,-1.2424,-1.2424,-1.2424,-1.2419,-1.2419,-1.2418,-1.2418,-1.2418]}]]